• In Belgien
  • Länderverzeichnis
  • Für 7 Tage
  • Wassertemperatur
  • Satellitenkarten
  • Wetterkarte
  • Widgets
  • user-avatar
    Anmelden

    Stündliche Wetter Roza

    Heute, 15 November, Donnerstag

    Zeit Temperatur Niederschläge Wind Luftdruck Luftfeuchtigkeit
    00:00 +7°C° 0.1 mm 3 m/S 740 mmHg 86%
    01:00 +5°C° 0.1 mm 3 m/S 740 mmHg 86%
    02:00 +5°C° 0 mm 3 m/S 740 mmHg 87%
    03:00 +5°C° 0.1 mm 3 m/S 740 mmHg 88%
    04:00 +5°C° 0.1 mm 3 m/S 741 mmHg 89%
    05:00 +5°C° 0.1 mm 3 m/S 741 mmHg 90%
    06:00 +4°C° 0.1 mm 3 m/S 741 mmHg 91%
    07:00 +4°C° 0.1 mm 3 m/S 741 mmHg 91%
    08:00 +4°C° 0.1 mm 3 m/S 741 mmHg 92%
    09:00 +5°C° 0.1 mm 3 m/S 741 mmHg 88%
    10:00 +5°C° 0.1 mm 3 m/S 741 mmHg 85%
    11:00 +7°C° 0.1 mm 3 m/S 741 mmHg 81%
    12:00 +6°C° 0.2 mm 4 m/S 741 mmHg 77%
    13:00 +6°C° 0.2 mm 4 m/S 741 mmHg 72%
    14:00 +7°C° 0.2 mm 4 m/S 741 mmHg 68%
    15:00 +6°C° 0.1 mm 4 m/S 742 mmHg 71%
    16:00 +7°C° 0.1 mm 3 m/S 742 mmHg 74%
    17:00 +5°C° 0.1 mm 3 m/S 742 mmHg 77%
    18:00 +5°C° 0 mm 3 m/S 742 mmHg 78%
    19:00 +4°C° 0 mm 4 m/S 742 mmHg 79%
    20:00 +3°C° 0 mm 4 m/S 743 mmHg 81%
    21:00 +3°C° 0 mm 4 m/S 743 mmHg 79%
    22:00 +1°C° 0 mm 4 m/S 743 mmHg 78%
    23:00 +1°C° 0 mm 4 m/S 743 mmHg 77%

    Morgen, 16 November, Freitag

    Zeit Temperatur Niederschläge Wind Luftdruck Luftfeuchtigkeit
    00:00 +1°C° 0 mm 4 m/S 744 mmHg 78%
    01:00 +1°C° 0 mm 4 m/S 744 mmHg 79%
    02:00 +1°C° 0 mm 4 m/S 744 mmHg 80%
    03:00 +1°C° 0 mm 4 m/S 745 mmHg 82%
    04:00 +1°C° 0 mm 4 m/S 745 mmHg 83%
    05:00 +1°C° 0 mm 3 m/S 745 mmHg 85%
    06:00 0°C° 0 mm 4 m/S 745 mmHg 85%
    07:00 0°C° 0 mm 4 m/S 746 mmHg 85%
    08:00 0°C° 0 mm 4 m/S 746 mmHg 85%
    09:00 +1°C° 0 mm 4 m/S 747 mmHg 81%
    10:00 +1°C° 0 mm 4 m/S 747 mmHg 78%
    11:00 +1°C° 0 mm 4 m/S 747 mmHg 74%
    12:00 +1°C° 0 mm 4 m/S 747 mmHg 70%
    13:00 +3°C° 0 mm 4 m/S 747 mmHg 66%
    14:00 +3°C° 0 mm 4 m/S 747 mmHg 61%
    15:00 +3°C° 0 mm 3 m/S 747 mmHg 65%
    16:00 +2°C° 0 mm 3 m/S 747 mmHg 68%
    17:00 +1°C° 0 mm 3 m/S 747 mmHg 71%
    18:00 +1°C° 0 mm 3 m/S 747 mmHg 72%
    19:00 0°C° 0 mm 3 m/S 748 mmHg 72%
    20:00 0°C° 0 mm 3 m/S 748 mmHg 73%
    21:00 -1°C° 0 mm 3 m/S 748 mmHg 74%
    22:00 -1°C° 0 mm 3 m/S 748 mmHg 74%
    23:00 -2°C° 0 mm 3 m/S 748 mmHg 74%

    übermorgen, 17 November, Samstag

    Zeit Temperatur Niederschläge Wind Luftdruck Luftfeuchtigkeit
    00:00 -2°C° 0 mm 3 m/S 748 mmHg 75%
    01:00 -4°C° 0 mm 3 m/S 748 mmHg 75%
    02:00 -3°C° 0 mm 2 m/S 748 mmHg 75%
    03:00 -3°C° 0 mm 2 m/S 748 mmHg 74%
    04:00 -3°C° 0 mm 2 m/S 748 mmHg 74%
    05:00 -3°C° 0 mm 2 m/S 748 mmHg 74%
    06:00 -4°C° 0 mm 2 m/S 748 mmHg 73%
    07:00 -4°C° 0 mm 2 m/S 748 mmHg 72%
    08:00 -5°C° 0 mm 3 m/S 748 mmHg 71%
    09:00 -2°C° 0 mm 3 m/S 748 mmHg 64%
    10:00 -1°C° 0 mm 3 m/S 748 mmHg 57%
    11:00 0°C° 0 mm 3 m/S 748 mmHg 51%
    12:00 0°C° 0 mm 3 m/S 748 mmHg 47%
    13:00 +1°C° 0 mm 3 m/S 747 mmHg 43%
    14:00 +2°C° 0 mm 3 m/S 747 mmHg 39%
    15:00 +1°C° 0 mm 3 m/S 747 mmHg 43%
    16:00 +1°C° 0 mm 2 m/S 746 mmHg 47%
    17:00 -1°C° 0 mm 2 m/S 746 mmHg 51%
    18:00 -2°C° 0 mm 2 m/S 746 mmHg 52%
    19:00 -2°C° 0 mm 2 m/S 746 mmHg 53%
    20:00 -2°C° 0 mm 2 m/S 746 mmHg 54%
    21:00 -2°C° 0 mm 2 m/S 746 mmHg 53%
    22:00 0°C° 0 mm 1 m/S 745 mmHg 53%
    23:00 0°C° 0 mm 1 m/S 745 mmHg 52%

    18 November, Sonntag

    Zeit Temperatur Niederschläge Wind Luftdruck Luftfeuchtigkeit
    00:00 -1°C° 0 mm 1 m/S 745 mmHg 52%
    01:00 -1°C° 0 mm 1 m/S 744 mmHg 51%
    02:00 -2°C° 0 mm 0 m/S 744 mmHg 51%
    03:00 -1°C° 0 mm 1 m/S 743 mmHg 51%
    04:00 -1°C° 0 mm 1 m/S 743 mmHg 51%
    05:00 -1°C° 0 mm 1 m/S 742 mmHg 50%
    06:00 -1°C° 0 mm 1 m/S 742 mmHg 50%
    07:00 -3°C° 0 mm 2 m/S 741 mmHg 50%
    08:00 -3°C° 0 mm 2 m/S 741 mmHg 49%
    09:00 -2°C° 0 mm 2 m/S 740 mmHg 47%
    10:00 -1°C° 0 mm 3 m/S 740 mmHg 44%
    11:00 0°C° 0 mm 3 m/S 739 mmHg 42%
    12:00 0°C° 0 mm 3 m/S 739 mmHg 43%
    13:00 +1°C° 0 mm 3 m/S 738 mmHg 45%
    14:00 +1°C° 0 mm 3 m/S 738 mmHg 46%
    15:00 0°C° 0.1 mm 3 m/S 737 mmHg 53%
    16:00 0°C° 0.1 mm 3 m/S 736 mmHg 60%
    17:00 -1°C° 0.1 mm 3 m/S 736 mmHg 67%
    18:00 -1°C° 0.1 mm 2 m/S 735 mmHg 73%
    19:00 -1°C° 0.1 mm 2 m/S 735 mmHg 78%
    20:00 -1°C° 0.1 mm 2 m/S 735 mmHg 84%
    21:00 -1°C° 0 mm 2 m/S 734 mmHg 87%
    22:00 +1°C° 0 mm 1 m/S 734 mmHg 90%
    23:00 +1°C° 0 mm 1 m/S 734 mmHg 93%

    19 November, Montag

    Zeit Temperatur Niederschläge Wind Luftdruck Luftfeuchtigkeit
    00:00 +1°C° 0 mm 1 m/S 734 mmHg 94%
    01:00 +1°C° 0 mm 1 m/S 734 mmHg 94%
    02:00 +1°C° 0 mm 1 m/S 733 mmHg 95%
    03:00 +1°C° 0 mm 1 m/S 733 mmHg 95%
    04:00 0°C° 0 mm 0 m/S 733 mmHg 95%
    05:00 0°C° 0 mm 0 m/S 733 mmHg 95%
    06:00 0°C° 0 mm 0 m/S 732 mmHg 95%
    07:00 -1°C° 0 mm 0 m/S 732 mmHg 96%
    08:00 -1°C° 0 mm 0 m/S 732 mmHg 96%
    09:00 +1°C° 0 mm 1 m/S 733 mmHg 91%
    10:00 +1°C° 0 mm 2 m/S 733 mmHg 87%
    11:00 +2°C° 0 mm 2 m/S 733 mmHg 83%
    12:00 +2°C° 0 mm 2 m/S 733 mmHg 80%
    13:00 +1°C° 0 mm 3 m/S 733 mmHg 77%
    14:00 +1°C° 0 mm 3 m/S 733 mmHg 75%
    15:00 +1°C° 0 mm 3 m/S 733 mmHg 78%
    16:00 0°C° 0 mm 3 m/S 733 mmHg 81%
    17:00 -1°C° 0 mm 3 m/S 733 mmHg 83%
    18:00 -1°C° 0 mm 3 m/S 733 mmHg 83%
    19:00 -1°C° 0 mm 3 m/S 733 mmHg 83%
    20:00 -2°C° 0 mm 4 m/S 733 mmHg 82%
    21:00 -3°C° 0 mm 4 m/S 733 mmHg 78%
    22:00 -3°C° 0 mm 4 m/S 734 mmHg 74%
    23:00 -3°C° 0 mm 4 m/S 734 mmHg 71%

    20 November, Dienstag

    Zeit Temperatur Niederschläge Wind Luftdruck Luftfeuchtigkeit
    00:00 -3°C° 0 mm 4 m/S 734 mmHg 70%
    01:00 -3°C° 0 mm 4 m/S 734 mmHg 69%
    02:00 -3°C° 0 mm 4 m/S 734 mmHg 68%
    03:00 -4°C° 0 mm 4 m/S 733 mmHg 68%
    04:00 -4°C° 0 mm 4 m/S 733 mmHg 68%
    05:00 -5°C° 0 mm 5 m/S 733 mmHg 68%
    06:00 -5°C° 0 mm 5 m/S 733 mmHg 71%
    07:00 -5°C° 0 mm 5 m/S 733 mmHg 74%
    08:00 -5°C° 0 mm 5 m/S 733 mmHg 77%
    09:00 -4°C° 0 mm 5 m/S 733 mmHg 76%
    10:00 -2°C° 0 mm 5 m/S 733 mmHg 75%
    11:00 -2°C° 0 mm 6 m/S 733 mmHg 74%
    12:00 -1°C° 0 mm 6 m/S 733 mmHg 74%
    13:00 -1°C° 0 mm 6 m/S 732 mmHg 74%
    14:00 +1°C° 0 mm 5 m/S 732 mmHg 74%
    15:00 -1°C° 0 mm 6 m/S 732 mmHg 77%
    16:00 -1°C° 0 mm 6 m/S 731 mmHg 80%
    17:00 -1°C° 0 mm 6 m/S 731 mmHg 83%
    18:00 -1°C° 0 mm 7 m/S 730 mmHg 83%
    19:00 -1°C° 0 mm 7 m/S 730 mmHg 83%
    20:00 0°C° 0 mm 7 m/S 729 mmHg 83%
    21:00 0°C° 0.6 mm 7 m/S 729 mmHg 84%
    22:00 0°C° 0.6 mm 7 m/S 728 mmHg 85%
    23:00 0°C° 0.6 mm 7 m/S 728 mmHg 85%
    Mehr zeigen